Terminal Aerodrome Forecast
Issued by NWS Louisville, KY

Home | Current Version | Previous Version | Text Only | Print | Product List | Glossary On
Versions: 1 2 3 4 5 6 7 8 9 10 11 12 13 14 15 16 17 18 19 20 21 22 23
000
FTUS43 KLMK 141700
TAFLEX
TAF
KLEX 141720Z 1418/1518 20017G24KT P6SM OVC040
     FM142100 23013KT P6SM VCSH OVC025
     FM150200 32013KT P6SM -RA OVC015
     FM150700 33015G22KT P6SM -RASNPL OVC010
     FM151100 32016G24KT P6SM BKN025=

USA.gov is the U.S. government's official web portal to all federal, state and local government web resources and services.